Вернуться в каталог

STARLINK-32951

АктивенСвязьVLEO
NORAD 63562·PAYLOAD·🇺🇸 United States

Запущен Apr 13, 2025 с Cape Canaveral Space Force Station

Loading…

Ближайшие Пролёты (ближайшие 24 часа)

TLE

СвежийSource: CelesTrak SupGP

Эпоха: Sep 14, 2026, 20:50 UTC

1 63562C 25075Q   26257.86854167 -.00001384  00000+0 -50142-4 0  2578
2 63562  42.9997 282.3497 0001412 268.9464 261.7834 15.27573015    14

Отслеживайте STARLINK-32951 в реальном времени с AllMySat

Download on the App Store